Le nostre stazioni meteo in Italia

Pubblicità
Il mio iltempo24.it
Grottaglie, Italia (16324): Temperatura & dewpoint: 11.02.2019 13:00:00 - 17.02.2019 13:00:00 (CET)Grottaglie, Italia (16324): velocità del vento: 11.02.2019 13:00:00 - 17.02.2019 13:00:00 (CET)Grottaglie, Italia (16324): direzione del vento: 11.02.2019 13:00:00 - 17.02.2019 13:00:00 (CET)Grottaglie, Italia (16324): visibility: 11.02.2019 13:00:00 - 17.02.2019 13:00:00 (CET)
Data & Tempo tt [°C] td [°C] ff [km/h] ff [kn] dd vv [km]
17.02.2019 13:00:00 14,0 3,0 11 6 O 10
17.02.2019 12:00:00 14,0 4,0 0 0 N 10
17.02.2019 11:00:00 13,0 3,0 0 0 N 10
17.02.2019 10:00:00 10,0 4,0 4 2 SO 10
17.02.2019 09:00:00 7,0 5,0 0 0 N 10
17.02.2019 08:00:00 3,0 2,0 0 0 N 10
17.02.2019 07:00:00 - - - - - -
17.02.2019 06:00:00 - - - - - -
17.02.2019 05:00:00 - - - - - -
17.02.2019 04:00:00 - - - - - -
17.02.2019 03:00:00 - - - - - -
17.02.2019 02:00:00 - - - - - -
17.02.2019 01:00:00 - - - - - -
17.02.2019 00:00:00 - - - - - -
16.02.2019 23:00:00 - - - - - -
16.02.2019 22:00:00 - - - - - -
16.02.2019 21:00:00 - - - - - -
16.02.2019 20:00:00 9,0 0,0 5 3 NNO 10
16.02.2019 19:00:00 10,0 1,0 5 3 ONO 10
16.02.2019 18:00:00 9,0 1,0 9 5 N 10
16.02.2019 17:00:00 11,0 1,0 21 11 N 10
16.02.2019 16:00:00 12,0 2,0 21 11 N 10
16.02.2019 15:00:00 12,0 1,0 21 11 NNE 10
16.02.2019 14:00:00 13,0 1,0 22 12 NNE 10
16.02.2019 13:00:00 13,0 1,0 21 11 NNE 10
16.02.2019 12:00:00 12,0 1,0 22 12 NNE 10
16.02.2019 11:00:00 11,0 1,0 21 11 NNE 10
16.02.2019 10:00:00 11,0 1,0 16 9 NNE 10
16.02.2019 09:00:00 9,0 1,0 8 4 N 10
16.02.2019 08:00:00 8,0 1,0 4 2 - 10
16.02.2019 07:00:00 - - - - - -
16.02.2019 06:00:00 - - - - - -
16.02.2019 05:00:00 - - - - - -
16.02.2019 04:00:00 - - - - - -
16.02.2019 03:00:00 - - - - - -
16.02.2019 02:00:00 - - - - - -
16.02.2019 01:00:00 - - - - - -
16.02.2019 00:00:00 - - - - - -
15.02.2019 23:00:00 - - - - - -
15.02.2019 22:00:00 - - - - - -
15.02.2019 21:00:00 - - - - - -
15.02.2019 20:00:00 9,0 -1,0 21 11 NE 10
15.02.2019 19:00:00 9,0 -1,0 18 10 NE 10
15.02.2019 18:00:00 8,0 3,0 13 7 N 10
15.02.2019 17:00:00 10,0 3,0 18 10 NNE 10
15.02.2019 16:00:00 10,0 3,0 26 14 NNE 10
15.02.2019 15:00:00 10,0 4,0 22 12 N 10
15.02.2019 14:00:00 8,0 4,0 16 9 NNE 10
15.02.2019 13:00:00 8,0 4,0 22 12 NE 10
15.02.2019 12:00:00 11,0 3,0 26 14 ENE 10
15.02.2019 11:00:00 13,0 1,0 24 13 NNE 10
15.02.2019 10:00:00 12,0 0,0 26 14 NNE 10
15.02.2019 09:00:00 11,0 2,0 26 14 N 10
15.02.2019 08:00:00 7,0 3,0 11 6 O 10
15.02.2019 07:00:00 - - - - - -
15.02.2019 06:00:00 - - - - - -
15.02.2019 05:00:00 - - - - - -
15.02.2019 04:00:00 - - - - - -
15.02.2019 03:00:00 - - - - - -
15.02.2019 02:00:00 - - - - - -
15.02.2019 01:00:00 - - - - - -
15.02.2019 00:00:00 - - - - - -
14.02.2019 23:00:00 - - - - - -
14.02.2019 22:00:00 - - - - - -
14.02.2019 21:00:00 - - - - - -
14.02.2019 20:00:00 10,0 4,0 24 13 N 10
14.02.2019 19:00:00 11,0 4,0 11 6 ONO 10
14.02.2019 18:00:00 11,0 5,0 65 35 O 10
14.02.2019 17:00:00 12,0 5,0 9 5 NNO 10
14.02.2019 16:00:00 13,0 4,0 18 10 N 10
14.02.2019 15:00:00 12,0 2,0 34 18 N 10
14.02.2019 14:00:00 13,0 12,0 37 20 N 10
14.02.2019 13:00:00 13,0 2,0 48 26 N 10
14.02.2019 12:00:00 13,0 2,0 48 26 N 10
14.02.2019 11:00:00 12,0 -1,0 42 23 N 10
14.02.2019 10:00:00 11,0 -2,0 41 22 N 10
14.02.2019 09:00:00 10,0 0,0 24 13 N 10
14.02.2019 08:00:00 6,0 -3,0 8 4 O 10
14.02.2019 07:00:00 - - - - - -
14.02.2019 06:00:00 - - - - - -
14.02.2019 05:00:00 - - - - - -
14.02.2019 04:00:00 - - - - - -
14.02.2019 03:00:00 - - - - - -
14.02.2019 02:00:00 - - - - - -
14.02.2019 01:00:00 - - - - - -
14.02.2019 00:00:00 - - - - - -
13.02.2019 23:00:00 - - - - - -
13.02.2019 22:00:00 - - - - - -
13.02.2019 21:00:00 - - - - - -
13.02.2019 20:00:00 7,0 -5,0 35 19 NNE 10
13.02.2019 19:00:00 6,0 -3,0 37 20 NNE 10
13.02.2019 18:00:00 5,0 -2,0 48 26 NNE 10
13.02.2019 17:00:00 7,0 -6,0 52 28 N 10
13.02.2019 16:00:00 6,0 -5,0 50 27 N 10
13.02.2019 15:00:00 8,0 -6,0 48 26 N 10
13.02.2019 14:00:00 8,0 -5,0 42 23 N 10
13.02.2019 13:00:00 7,0 -5,0 26 14 NNE 10
13.02.2019 12:00:00 8,0 -5,0 50 27 N 10
13.02.2019 11:00:00 8,0 -6,0 57 31 N 10
13.02.2019 10:00:00 8,0 -6,0 63 34 NNE 10
13.02.2019 09:00:00 7,0 -6,0 46 25 N 10
13.02.2019 08:00:00 7,0 -7,0 31 17 N 10
13.02.2019 07:00:00 - - - - - -
13.02.2019 06:00:00 - - - - - -
13.02.2019 05:00:00 - - - - - -
13.02.2019 04:00:00 - - - - - -
13.02.2019 03:00:00 - - - - - -
13.02.2019 02:00:00 - - - - - -
13.02.2019 01:00:00 - - - - - -
13.02.2019 00:00:00 - - - - - -
12.02.2019 23:00:00 - - - - - -
12.02.2019 22:00:00 - - - - - -
12.02.2019 21:00:00 - - - - - -
12.02.2019 20:00:00 8,0 -5,0 26 14 N 10
12.02.2019 19:00:00 8,0 -4,0 31 17 N 10
12.02.2019 18:00:00 8,0 -4,0 28 15 N 10
12.02.2019 17:00:00 9,0 -3,0 31 17 N 10
12.02.2019 16:00:00 10,0 -3,0 34 18 N 10
12.02.2019 15:00:00 10,0 -2,0 34 18 N 10
12.02.2019 14:00:00 11,0 -2,0 37 20 N 10
12.02.2019 13:00:00 11,0 -2,0 42 23 NNE 10
12.02.2019 12:00:00 11,0 -1,0 42 23 N 10
12.02.2019 11:00:00 11,0 -2,0 44 24 N 10
12.02.2019 10:00:00 8,0 2,0 39 21 NNO 10
12.02.2019 09:00:00 10,0 0,0 31 17 N 10
12.02.2019 08:00:00 8,0 2,0 9 5 ONO 10
12.02.2019 07:00:00 - - - - - -
12.02.2019 06:00:00 - - - - - -
12.02.2019 05:00:00 - - - - - -
12.02.2019 04:00:00 - - - - - -
12.02.2019 03:00:00 - - - - - -
12.02.2019 02:00:00 - - - - - -
12.02.2019 01:00:00 - - - - - -
12.02.2019 00:00:00 - - - - - -
11.02.2019 23:00:00 - - - - - -
11.02.2019 22:00:00 - - - - - -
11.02.2019 21:00:00 - - - - - -
11.02.2019 20:00:00 7,0 2,0 5 3 NO 10
11.02.2019 19:00:00 9,0 3,0 15 8 NO 10
11.02.2019 18:00:00 13,0 0,0 16 9 O 10
11.02.2019 17:00:00 14,0 1,0 29 16 OSO 10
11.02.2019 16:00:00 16,0 1,0 34 18 OSO 10
11.02.2019 15:00:00 16,0 1,0 29 16 SO 10
11.02.2019 14:00:00 16,0 8,0 18 10 SSO 10
11.02.2019 13:00:00 15,0 6,0 24 13 SSO 10

tt = Temperatura
td = dewpoint
ff = velocità del vento
dd = direzione del vento
vv = visibility

Stazioni seguenti

WeatherPro
AMSI
MeteoEarth